This demonstration page uses our WeatherBlox Daily Observations layout. Learn more.

Left ArrowRight Arrow

44.89941, -97.11507

Hourly Observations for February 5, 2021

Temp ( °F °C ) Dew Point ( °F °C ) Humidity (%) Winds ( mph kmh ) Pressure ( in mb ) Visibility ( mi km ) Precip ( " mm )
12:53 am 00:53 Clear 3 -16.1 -3 -19.4 76 76 WNW 16 26 29.80 1009 10 16 0.00 0.00
1:53 am 01:53 Clear 2 -16.7 -3 -19.4 80 80 WNW 14 22 29.80 1009 10 16 0.00 0.00
2:53 am 02:53 Mostly Clear 2 -16.7 -4 -20 76 76 WNW 17 28 29.80 1009 10 16 0.00 0.00
3:53 am 03:53 Clear 1 -17.2 -4 -20 79 79 NW 15 24 29.81 1009 10 16 0.00 0.00
4:53 am 04:53 Clear 1 -17.2 -5 -20.6 75 75 WNW 14 22 29.83 1010 10 16 0.00 0.00
5:14 am 05:14 Mostly Cloudy 1 -17.2 -4 -20 79 79 WNW 13 20 29.93 1014 10 16 0.00 0.00
5:53 am 05:53 Mostly Cloudy 0 -17.8 -5 -20.6 79 79 NW 14 22 29.84 1010 10 16 0.00 0.00
6:20 am 06:20 Partly Cloudy 0 -17.8 -5 -20.6 79 79 NW 15 24 29.94 1014 10 16 0.00 0.00
6:53 am 06:53 Clear -1 -18.3 -5 -20.6 82 82 NW 18 30 29.84 1010 10 16 0.00 0.00
7:53 am 07:53 Sunny -1 -18.3 -6 -21.1 79 79 NW 16 26 29.85 1011 10 16 0.00 0.00
8:53 am 08:53 Sunny 0 -17.8 -5 -20.6 79 79 WNW 15 24 29.88 1012 10 16 0.00 0.00
9:53 am 09:53 Sunny 1 -17.2 -5 -20.6 75 75 WNW 18 30 29.88 1012 10 16 0.00 0.00
10:53 am 10:53 Sunny 3 -16.1 -4 -20 72 72 WNW 15 24 29.90 1012 10 16 0.00 0.00
11:53 am 11:53 Sunny 6 -14.4 -2 -18.9 69 69 WNW 15 24 29.89 1012 10 16 0.00 0.00
12:53 pm 12:53 Mostly Cloudy 8 -13.3 0 -17.8 69 69 WNW 18 30 29.88 1012 10 16 0.00 0.00
1:53 pm 13:53 Mostly Sunny 10 -12.2 1 -17.2 67 67 WNW 15 24 29.87 1011 10 16 0.00 0.00
2:53 pm 14:53 Sunny 11 -11.7 2 -16.7 67 67 WNW 17 28 29.87 1011 10 16 0.00 0.00
3:53 pm 15:53 Mostly Cloudy 13 -10.6 4 -15.6 67 67 WNW 17 28 29.88 1012 10 16 0.00 0.00
4:02 pm 16:02 Cloudy 13 -10.6 4 -15.6 67 67 WNW 16 26 29.92 1013 10 16 0.00 0.00
4:16 pm 16:16 Cloudy 13 -10.6 5 -15 70 70 WNW 15 24 29.93 1013 10 16 0.00 0.00
4:53 pm 16:53 Cloudy with Light Snow 13 -10.6 7 -13.9 77 77 WNW 15 24 29.89 1012 3 4 0.00 0.00
5:01 pm 17:01 Cloudy with Light Snow 13 -10.6 8 -13.3 81 81 WNW 13 20 29.94 1014 2 3 0.00 0.00
5:06 pm 17:06 Cloudy with Light Snow 13 -10.6 8 -13.3 81 81 NW 16 26 29.94 1014 1 2 0.00 0.00
5:31 pm 17:31 Cloudy with Light Snow 12 -11.1 8 -13.3 84 84 NNW 17 28 29.95 1014 2 3 0.00 0.00
5:33 pm 17:33 Windy with Snow Likely 12 -11.1 8 -13.3 84 84 NNW 20 31 29.95 1014 3 4 0.00 0.00
5:38 pm 17:38 Cloudy with Light Snow 11 -11.7 7 -13.9 84 84 NW 17 28 29.96 1014 3 5 0.00 0.00
5:53 pm 17:53 Cloudy with Light Snow 11 -11.7 6 -14.4 81 81 NNW 17 28 29.92 1013 4 6 0.00 0.00
6:41 pm 18:41 Cloudy with Light Snow 10 -12.2 5 -15 80 80 N 14 22 29.99 1016 3 4 0.00 0.00
6:53 pm 18:53 Cloudy with Haze 9 -12.8 4 -15.6 80 80 NNW 18 30 29.95 1014 6 10 0.00 0.00
7:53 pm 19:53 Clear 5 -15 0 -17.8 79 79 NNW 15 24 29.97 1015 10 16 0.00 0.00
8:53 pm 20:53 Clear 3 -16.1 -4 -20 72 72 NNW 14 22 30.01 1016 10 16 0.00 0.00
9:53 pm 21:53 Clear 2 -16.7 -5 -20.6 72 72 NNW 14 22 30.02 1017 10 16 0.00 0.00
10:53 pm 22:53 Clear 0 -17.8 -7 -21.7 72 72 NW 13 20 30.04 1017 10 16 0.00 0.00
11:53 pm 23:53 Clear -2 -18.9 -8 -22.2 75 75 NNW 14 22 30.06 1018 10 16 0.00 0.00

Powered by AerisWeather